Content
SEND FEEDBACK

Daily
Averages
Monthly
Summary
United Kingdom

BICKENHILL, ENGLAND


Home > Europe > United Kingdom > England
Elevation: 325 feet     Latitude: 52 27N     Longitude: 001 43W

WEATHER
 
SELECT A DAY
Number of Records: 282,086;   Date Range: 7/1/96 - 9/16/14
 
SHARE

PRINT THIS DATA

[ ← Previous Day ]
WEATHER ALMANAC - OCTOBER 8, 2013
[ Next Day → ]
[ °C ]   °F
We're sorry. There is no daily almanac available for Bickenhill, England on October 8, 2013.
WEATHER BY HOUR - OCTOBER 8, 2013
[ °C ]   °F
Local TimeTemperatureDewpointHumidityBarometerVisibilityWind DirectionWind SpeedGust SpeedPrecipitationEventsConditions
12:50 AM55.4 °F53.6 °F94 %30.21 inSouth (170°)5.8 mphClear
1:20 AM57.2 °F55.4 °F94 %30.21 inSSW (200°)5.8 mphClear
1:50 AM55.4 °F55.4 °F100 %30.21 in5.6 miSSW (200°)6.9 mph
2:20 AM55.4 °F55.4 °F100 %30.21 inSouth (180°)9.2 mphClear
2:50 AM55.4 °F53.6 °F94 %30.21 inSouth (180°)8.1 mphClear
3:20 AM55.4 °F53.6 °F94 %30.21 inSouth (180°)8.1 mphClear
3:50 AM53.6 °F53.6 °F100 %30.21 in5.6 miSouth (170°)8.1 mph
4:20 AM53.6 °F53.6 °F100 %30.21 inSouth (170°)6.9 mphClear
4:50 AM55.4 °F53.6 °F94 %30.18 inSSW (200°)9.2 mphClear
5:20 AM55.4 °F53.6 °F94 %30.21 inSSW (200°)6.9 mphClear
5:50 AM57.2 °F55.4 °F94 %30.21 in6.2 miSSW (200°)10.4 mphPartly Cloudy
6:20 AM57.2 °F55.4 °F94 %30.18 in6.2 miSouth (190°)6.9 mphScattered Clouds
6:50 AM57.2 °F55.4 °F94 %30.21 in6.2 miSouth (180°)6.9 mphMostly Cloudy
7:20 AM57.2 °F55.4 °F94 %30.21 in5.6 miSouth (190°)6.9 mphScattered Clouds
7:50 AM57.2 °F55.4 °F94 %30.21 in5.6 miSouth (180°)6.9 mphScattered Clouds
8:20 AM57.2 °F57.2 °F100 %30.21 in5.6 miSouth (180°)5.8 mphMostly Cloudy
8:50 AM59.0 °F57.2 °F94 %30.21 in5.6 miSouth (190°)4.6 mphPartly Cloudy
9:20 AM59.0 °F57.2 °F94 %30.21 in6.2 miSSW (200°)5.8 mphScattered Clouds
9:50 AM60.8 °F57.2 °F88 %30.21 in6.2 miSW (220°)9.2 mphScattered Clouds
10:20 AM62.6 °F59.0 °F88 %30.24 in6.2 miSW (230°)11.5 mphMostly Cloudy
10:50 AM62.6 °F59.0 °F88 %30.24 in6.2 miSW (230°)10.4 mphMostly Cloudy
11:20 AM62.6 °F59.0 °F88 %30.21 in6.2 miSW (230°)11.5 mphScattered Clouds
11:50 AM62.6 °F59.0 °F88 %30.21 in6.2 miSW (230°)10.4 mphMostly Cloudy
12:20 PM62.6 °F59.0 °F88 %30.21 in6.2 miSW (230°)10.4 mphMostly Cloudy
12:50 PM64.4 °F59.0 °F83 %30.21 in6.2 miSW (230°)9.2 mphMostly Cloudy
1:20 PM64.4 °F59.0 °F83 %30.21 in6.2 miWSW (240°)10.4 mphScattered Clouds
1:50 PM68.0 °F59.0 °F73 %30.21 in6.2 miWSW (240°)9.2 mphScattered Clouds
2:20 PM68.0 °F59.0 °F73 %30.21 in6.2 miWSW (250°)9.2 mphScattered Clouds
2:50 PM69.8 °F59.0 °F68 %30.21 in6.2 miWSW (250°)11.5 mphScattered Clouds
3:20 PM68.0 °F57.2 °F68 %30.21 in6.2 miWest (270°)9.2 mphScattered Clouds
3:50 PM68.0 °F53.6 °F60 %30.21 in6.2 miWNW (300°)11.5 mphScattered Clouds
4:20 PM66.2 °F53.6 °F64 %30.21 in6.2 miWNW (290°)10.4 mphScattered Clouds
4:50 PM66.2 °F51.8 °F60 %30.21 in6.2 miWNW (300°)11.5 mphScattered Clouds
5:20 PM64.4 °F51.8 °F64 %30.21 in6.2 miWNW (290°)11.5 mphScattered Clouds
5:50 PM62.6 °F51.8 °F68 %30.21 in6.2 miWNW (300°)6.9 mphMostly Cloudy
6:20 PM62.6 °F51.8 °F68 %30.21 in6.2 miWNW (290°)8.1 mphMostly Cloudy
6:50 PM62.6 °F51.8 °F68 %30.24 in6.2 miWNW (300°)11.5 mphMostly Cloudy
7:20 PM60.8 °F51.8 °F72 %30.24 in6.2 miWNW (290°)10.4 mphMostly Cloudy
7:50 PM60.8 °F53.6 °F77 %30.24 in6.2 miNW (320°)6.9 mphMostly Cloudy
8:20 PM59.0 °F55.4 °F88 %30.24 in6.2 miNNW (330°)5.8 mphMostly Cloudy
8:50 PM59.0 °F53.6 °F82 %30.24 in6.2 miNW (310°)9.2 mphMostly Cloudy
9:20 PM57.2 °F53.6 °F88 %30.24 in6.2 miNW (320°)8.1 mphMostly Cloudy
9:50 PM57.2 °F53.6 °F88 %30.27 in6.2 miNW (320°)8.1 mphScattered Clouds
10:20 PM57.2 °F50.0 °F77 %30.27 in6.2 miNW (310°)9.2 mphMostly Cloudy
10:50 PM57.2 °F50.0 °F77 %30.24 in6.2 miNW (310°)5.8 mphScattered Clouds
11:20 PM55.4 °F50.0 °F82 %30.24 in6.2 miWNW (290°)5.8 mphMostly Cloudy
11:50 PM57.2 °F50.0 °F77 %30.24 in6.2 miWest (280°)4.6 mphMostly Cloudy
Hourly data recorded from EGBB, located miles away from Bickenhill, England







STORIES FROM OUR PARTNERS